Stündliche Wetter Czyzowka

Heute, 28 Oktober, Mittwoch

Zeit Temperatur Niederschläge Wind Luftdruck Luftfeuchtigkeit
00:00 +13°C° 0 mm 1 m/S 747 mmHg 89%
01:00 +12°C° 0 mm 1 m/S 748 mmHg 89%
02:00 +12°C° 0 mm 1 m/S 747 mmHg 90%
03:00 +12°C° 0 mm 1 m/S 747 mmHg 91%
04:00 +10°C° 0 mm 0 m/S 747 mmHg 91%
05:00 +11°C° 0 mm 1 m/S 748 mmHg 92%
06:00 +11°C° 0 mm 1 m/S 748 mmHg 92%
07:00 +11°C° 0 mm 1 m/S 748 mmHg 92%
08:00 +12°C° 0 mm 2 m/S 748 mmHg 88%
09:00 +13°C° 0 mm 2 m/S 748 mmHg 84%
10:00 +14°C° 0 mm 2 m/S 748 mmHg 80%
11:00 +15°C° 0 mm 2 m/S 748 mmHg 79%
12:00 +15°C° 0 mm 2 m/S 748 mmHg 78%
13:00 +15°C° 0 mm 2 m/S 747 mmHg 77%
14:00 +15°C° 0 mm 2 m/S 747 mmHg 79%
15:00 +15°C° 0 mm 2 m/S 747 mmHg 81%
16:00 +14°C° 0 mm 2 m/S 747 mmHg 82%
17:00 +13°C° 0 mm 2 m/S 748 mmHg 84%
18:00 +13°C° 0 mm 2 m/S 748 mmHg 86%
19:00 +12°C° 0 mm 2 m/S 748 mmHg 87%
20:00 +11°C° 0 mm 3 m/S 748 mmHg 85%
21:00 +11°C° 0 mm 3 m/S 748 mmHg 83%
22:00 +10°C° 0 mm 3 m/S 748 mmHg 81%
23:00 +10°C° 0 mm 3 m/S 749 mmHg 80%

Morgen, 29 Oktober, Donnerstag

Zeit Temperatur Niederschläge Wind Luftdruck Luftfeuchtigkeit
00:00 +10°C° 0 mm 3 m/S 749 mmHg 80%
01:00 +9°C° 0 mm 3 m/S 749 mmHg 80%
02:00 +9°C° 0 mm 3 m/S 749 mmHg 82%
03:00 +9°C° 0 mm 3 m/S 749 mmHg 84%
04:00 +8°C° 0 mm 3 m/S 748 mmHg 86%
05:00 +8°C° 0 mm 3 m/S 749 mmHg 86%
06:00 +8°C° 0 mm 3 m/S 749 mmHg 86%
07:00 +8°C° 0 mm 3 m/S 749 mmHg 86%
08:00 +10°C° 0 mm 3 m/S 749 mmHg 79%
09:00 +11°C° 0 mm 4 m/S 749 mmHg 72%
10:00 +12°C° 0 mm 4 m/S 749 mmHg 66%
11:00 +12°C° 0 mm 4 m/S 748 mmHg 65%
12:00 +13°C° 0 mm 5 m/S 748 mmHg 64%
13:00 +13°C° 0 mm 5 m/S 748 mmHg 63%
14:00 +13°C° 0 mm 4 m/S 748 mmHg 67%
15:00 +12°C° 0 mm 4 m/S 748 mmHg 70%
16:00 +11°C° 0 mm 3 m/S 747 mmHg 74%
17:00 +11°C° 0.4 mm 4 m/S 748 mmHg 78%
18:00 +10°C° 0.4 mm 4 m/S 748 mmHg 81%
19:00 +9°C° 0.4 mm 5 m/S 748 mmHg 84%
20:00 +9°C° 0.2 mm 5 m/S 748 mmHg 84%
21:00 +8°C° 0.2 mm 5 m/S 749 mmHg 83%
22:00 +7°C° 0.2 mm 5 m/S 749 mmHg 83%
23:00 +7°C° 0 mm 5 m/S 749 mmHg 84%

übermorgen, 30 Oktober, Freitag

Zeit Temperatur Niederschläge Wind Luftdruck Luftfeuchtigkeit
00:00 +6°C° 0 mm 5 m/S 750 mmHg 85%
01:00 +6°C° 0 mm 5 m/S 750 mmHg 86%
02:00 +5°C° 0 mm 5 m/S 750 mmHg 87%
03:00 +5°C° 0 mm 5 m/S 751 mmHg 88%
04:00 +5°C° 0 mm 5 m/S 751 mmHg 89%
05:00 +5°C° 0 mm 5 m/S 751 mmHg 90%
06:00 +4°C° 0 mm 4 m/S 751 mmHg 91%
07:00 +4°C° 0 mm 4 m/S 752 mmHg 92%
08:00 +5°C° 0 mm 4 m/S 752 mmHg 87%
09:00 +6°C° 0 mm 4 m/S 752 mmHg 82%
10:00 +7°C° 0 mm 4 m/S 752 mmHg 77%
11:00 +8°C° 0 mm 4 m/S 751 mmHg 73%
12:00 +8°C° 0 mm 4 m/S 751 mmHg 69%
13:00 +10°C° 0 mm 4 m/S 751 mmHg 65%
14:00 +9°C° 0.1 mm 3 m/S 750 mmHg 68%
15:00 +9°C° 0.1 mm 2 m/S 750 mmHg 70%
16:00 +8°C° 0.1 mm 2 m/S 749 mmHg 73%
17:00 +8°C° 0.9 mm 2 m/S 749 mmHg 77%
18:00 +7°C° 0.9 mm 3 m/S 749 mmHg 82%
19:00 +7°C° 0.9 mm 3 m/S 749 mmHg 86%
20:00 +6°C° 0.7 mm 4 m/S 749 mmHg 87%
21:00 +6°C° 0.7 mm 4 m/S 749 mmHg 87%
22:00 +5°C° 0.7 mm 4 m/S 749 mmHg 88%
23:00 +5°C° 0 mm 3 m/S 750 mmHg 89%

31 Oktober, Samstag

Zeit Temperatur Niederschläge Wind Luftdruck Luftfeuchtigkeit
00:00 +5°C° 0 mm 3 m/S 750 mmHg 90%
01:00 +5°C° 0 mm 2 m/S 750 mmHg 91%
02:00 +5°C° 0 mm 2 m/S 751 mmHg 91%
03:00 +5°C° 0 mm 2 m/S 752 mmHg 92%
04:00 +4°C° 0 mm 2 m/S 752 mmHg 92%
05:00 +4°C° 0 mm 2 m/S 753 mmHg 93%
06:00 +5°C° 0 mm 1 m/S 753 mmHg 93%
07:00 +5°C° 0 mm 1 m/S 754 mmHg 94%
08:00 +5°C° 0 mm 2 m/S 755 mmHg 88%
09:00 +7°C° 0 mm 2 m/S 755 mmHg 83%
10:00 +8°C° 0 mm 2 m/S 756 mmHg 77%
11:00 +9°C° 0 mm 2 m/S 756 mmHg 74%
12:00 +10°C° 0 mm 2 m/S 756 mmHg 70%
13:00 +10°C° 0 mm 2 m/S 756 mmHg 67%
14:00 +10°C° 0 mm 2 m/S 756 mmHg 71%
15:00 +9°C° 0 mm 2 m/S 756 mmHg 75%
16:00 +9°C° 0 mm 1 m/S 756 mmHg 79%
17:00 +9°C° 0 mm 1 m/S 757 mmHg 82%
18:00 +8°C° 0 mm 1 m/S 757 mmHg 86%
19:00 +7°C° 0 mm 1 m/S 757 mmHg 89%
20:00 +7°C° 0 mm 1 m/S 757 mmHg 90%
21:00 +7°C° 0 mm 1 m/S 757 mmHg 91%
22:00 +6°C° 0 mm 1 m/S 757 mmHg 92%
23:00 +6°C° 0 mm 1 m/S 757 mmHg 92%

1 November, Sonntag

Zeit Temperatur Niederschläge Wind Luftdruck Luftfeuchtigkeit
00:00 +6°C° 0 mm 1 m/S 757 mmHg 92%
01:00 +6°C° 0 mm 1 m/S 758 mmHg 93%
02:00 +6°C° 0 mm 1 m/S 757 mmHg 93%
03:00 +5°C° 0 mm 2 m/S 757 mmHg 92%
04:00 +5°C° 0 mm 2 m/S 757 mmHg 92%
05:00 +4°C° 0 mm 2 m/S 757 mmHg 92%
06:00 +4°C° 0 mm 2 m/S 757 mmHg 92%
07:00 +4°C° 0 mm 2 m/S 757 mmHg 92%
08:00 +5°C° 0 mm 3 m/S 757 mmHg 87%
09:00 +8°C° 0 mm 3 m/S 757 mmHg 81%
10:00 +8°C° 0 mm 4 m/S 757 mmHg 76%
11:00 +10°C° 0 mm 4 m/S 756 mmHg 73%
12:00 +11°C° 0 mm 4 m/S 756 mmHg 70%
13:00 +12°C° 0 mm 4 m/S 756 mmHg 67%
14:00 +11°C° 0 mm 4 m/S 755 mmHg 71%
15:00 +10°C° 0 mm 3 m/S 755 mmHg 76%
16:00 +9°C° 0 mm 3 m/S 755 mmHg 80%
17:00 +9°C° 0 mm 3 m/S 755 mmHg 83%
18:00 +8°C° 0 mm 3 m/S 755 mmHg 85%
19:00 +6°C° 0 mm 4 m/S 755 mmHg 88%
20:00 +6°C° 0 mm 4 m/S 755 mmHg 89%
21:00 +6°C° 0 mm 4 m/S 755 mmHg 89%
22:00 +7°C° 0 mm 3 m/S 755 mmHg 90%
23:00 +7°C° 0 mm 3 m/S 755 mmHg 89%

2 November, Montag

Zeit Temperatur Niederschläge Wind Luftdruck Luftfeuchtigkeit
00:00 +5°C° 0 mm 3 m/S 755 mmHg 89%
01:00 +5°C° 0 mm 3 m/S 755 mmHg 88%
02:00 +5°C° 0 mm 3 m/S 755 mmHg 87%
03:00 +5°C° 0 mm 3 m/S 754 mmHg 85%
04:00 +5°C° 0 mm 3 m/S 754 mmHg 83%
05:00 +5°C° 0 mm 3 m/S 754 mmHg 82%
06:00 +5°C° 0 mm 3 m/S 754 mmHg 80%
07:00 +5°C° 0 mm 3 m/S 755 mmHg 79%
08:00 +8°C° 0 mm 3 m/S 755 mmHg 73%
09:00 +9°C° 0 mm 3 m/S 755 mmHg 67%
10:00 +11°C° 0 mm 4 m/S 755 mmHg 61%
11:00 +12°C° 0 mm 4 m/S 755 mmHg 60%
12:00 +13°C° 0 mm 4 m/S 754 mmHg 58%
13:00 +14°C° 0 mm 4 m/S 754 mmHg 56%
14:00 +13°C° 0 mm 3 m/S 754 mmHg 60%
15:00 +12°C° 0 mm 3 m/S 754 mmHg 64%
16:00 +11°C° 0 mm 3 m/S 754 mmHg 68%
17:00 +10°C° 0 mm 3 m/S 754 mmHg 69%
18:00 +10°C° 0 mm 3 m/S 754 mmHg 70%
19:00 +9°C° 0 mm 3 m/S 754 mmHg 72%
20:00 +9°C° 0 mm 3 m/S 754 mmHg 71%
21:00 +9°C° 0 mm 3 m/S 754 mmHg 71%
22:00 +9°C° 0 mm 3 m/S 754 mmHg 71%
23:00 +8°C° 0 mm 3 m/S 754 mmHg 72%
Mehr zeigen

Wir brauchen deine Erlaubnis

Meteoprog und unser Service Anbieter werden persönliche Daten aufbewahren, so wie Cookies, Geräte Bezeichnung oder ähnliche Technologien von deinem Gerät und Prozess, so wie Persönliche Daten Inhalte und Werbungen, genauso wie social Media und den Verkehr zu analysieren.

  • Aufbewahrung und/oder Zugang zu deiner Geräte Informationen.

    Cookies, Geräte Bezeichnung oder andere Informationen, können aufbewahrt oder Zugang zu deinem Gerät erhalten, für den Grund, der oben angegeben wird.

  • Personalisierte Werbung und Inhalte, Messungen, Einblick in das Publikum und Produkt Entwicklung.

    Werbungen und Inhalte können personalisiert werden, basierend auf ein Profil. Mehr Daten können besser personalisierte Werbungen und Inhalte hinzufügen. Werbung und Inhalte können gezeigt und gemessen werden. Einblicke über das Publikum, welche die Werbung gesehen haben und den Inhalt, können abgeleitet werden. So wie Daten können genutzt werden, um es zu verbessern oder die Benutzer Erfahrung zu verbessern das System und die Software.

Wenn du “Ich stimme zu” klickst, erlaubst du uns, die Cookies zu benutzen die Geräte Bezeichnung, den Web oder ähnliche Technologien zu benutzen. Deine Settings, können in deinem Gerät bei deinem Browser geändert werden.

Für den bestimmten Zweck, berechtigten Interessen beruhen darauf, mehr als auf den Inhalt. Du kannst mehr darüber in unseren Privaten und Cookie Politik lesen.